[[{"header":{"parameterUnit":"m.s-1","parameterCategory":2,"la1":30.2991,"la2":30.254,"lo1":-89.0895,"lo2":-89.0444,"dy":0.0017,"dx":0.0017,"nx":28,"ny":28,"refTime":"2025-11-29T03:00:00:Z","depth":"0","parameterNumber":2,"parameterNumberName":"U-component_of_CURRENTS"},"data":[0,0,0,0,0,0,0,0,0,0,0,0,0,0,0,0,0,0,0,0,0,0,0,0,0,0,0,0,0,0,0,0,0,0,0,0,0,0,0,0,0,0,0,0,0,0,0,0,0,0,0,0,0,0,0,0,0,0,0.2936,0.2937,0,0.2938,0.2938,0.2937,0.2912,0.2912,0.2912,0.2912,0.2873,0.2872,0.2871,0,0,0,0,0,0,0,0,0,0,0,0,0,0.2866,0.2867,0.2936,0.2937,0.2938,0.2939,0.2938,0.2937,0.2912,0.2912,0.2912,0.2912,0.2873,0.2872,0.2871,0,0,0,0,0,0,0,0,0,0,0,0,0,0.2879,0.2867,0.2936,0.293,0.293,0.2939,0.2938,0.2937,0.2912,0.2912,0.2912,0.2912,0.2874,0.2872,0.2871,0.2866,0,0,0.2867,0.2866,0,0,0,0,0,0,0,0,0.2878,0.2881,0.293,0.293,0.293,0.293,0.2899,0.2913,0.2912,0.2912,0.2912,0.2912,0.2893,0.289,0.2882,0.2864,0.2862,0.2866,0.2866,0.2865,0.2865,0,0,0,0,0,0,0,0.2877,0.288,0.2931,0.2931,0.2931,0.2912,0.2913,0.2901,0.2898,0.2912,0.2912,0.2922,0.2891,0.2883,0.2881,0.2862,0.2866,0.2865,0.2864,0.2864,0.2882,0.2883,0,0,0,0,0,0,0.2893,0.288,0.2931,0.2931,0.291,0.2914,0.2915,0.2925,0.2899,0.2897,0.2922,0.2921,0.2886,0.2883,0.2879,0.2915,0.2865,0.2864,0.2863,0.2881,0.2882,0.2884,0,0,0,0,0,0,0.2891,0.2897,0.2931,0.291,0.2914,0.2916,0.2927,0.2926,0.2927,0.2908,0.2904,0.2928,0.2886,0.2881,0.2887,0.2912,0.2863,0.2862,0.2879,0.2881,0.2883,0.2959,0,0,0,0,0,0,0.2889,0.2896,0.2903,0.2912,0.2916,0.2948,0.2928,0.2926,0.2936,0.2935,0.2911,0.2907,0.2885,0.2889,0.2886,0.2909,0.2861,0.2877,0.288,0.2882,0.2955,0.2963,0.297,0,0,0,0,0,0.2886,0.2901,0.2903,0.291,0.2928,0.295,0.295,0.2945,0.2937,0.2944,0.2933,0.2908,0.2902,0.2889,0.2885,0.2908,0.2876,0.2879,0.2882,0.2951,0.2961,0.297,0,0,0,0,0,0,0.2866,0.2901,0.2903,0.2925,0.2943,0.2948,0.2956,0.2954,0.295,0.2949,0.2922,0.2918,0.2935,0.2911,0.2898,0.2922,0.2886,0.2888,0.294,0.295,0.2957,0.2978,0.286,0,0,0,0,0,0.287,0.2893,0.2917,0.2935,0.2947,0.2953,0.296,0.2963,0.2966,0.2963,0.2948,0.2938,0.2942,0.2938,0.2933,0.2941,0.2956,0.2954,0.2962,0.2969,0.2984,0.3038,0.3053,0.2894,0.2893,0.2893,0,0,0.2867,0.289,0.2902,0.2934,0.2944,0.2964,0.2955,0.2978,0.2993,0.296,0.2969,0.2966,0.2952,0.2969,0.2973,0.2951,0.3024,0.2973,0.2979,0.299,0.3043,0.3058,0.3072,0.2896,0.2895,0.2895,0,0,0.2874,0.2897,0.2916,0.2939,0.2972,0.2979,0.2992,0.3007,0.3012,0.3026,0.3016,0.3034,0.3018,0.3026,0.3025,0.3073,0.3068,0.3067,0.3118,0.3171,0.3185,0.3197,0.3245,0.3261,0.3065,0.3066,0.3066,0,0.2865,0.2899,0.2924,0.295,0.2974,0.299,0.3015,0.3025,0.3038,0.3054,0.3038,0.3064,0.3049,0.3091,0.311,0.3092,0.3122,0.3082,0.3183,0.3195,0.3207,0.3253,0.327,0.307,0.3069,0.3069,0.3068,0,0.2887,0.2917,0.2934,0.2974,0.3001,0.303,0.306,0.3077,0.3086,0.31,0.3146,0.3143,0.3159,0.3162,0.3148,0.3224,0.322,0.3193,0.3162,0.3228,0.3272,0.3288,0.3075,0.3074,0.3073,0.3072,0,0,0.2853,0.2932,0.2938,0.2965,0.3022,0.3043,0.3083,0.3125,0.3154,0.3177,0.3224,0.3247,0.3258,0.326,0.3258,0.3305,0.3409,0.3289,0.329,0.3343,0.3538,0.3445,0.3454,0.3406,0.3409,0.3411,0.354,0,0.2858,0.2912,0.2955,0.3004,0.3034,0.3078,0.3114,0.3158,0.3189,0.3235,0.3272,0.3309,0.3291,0.331,0.3361,0.3395,0.3454,0.3377,0.3461,0.3464,0.3378,0.347,0.3271,0.336,0.3555,0.3558,0.356,0,0.2861,0.29,0.295,0.3028,0.3046,0.3074,0.3143,0.318,0.3256,0.3287,0.3348,0.3375,0.3455,0.3425,0.3543,0.3498,0.3533,0.356,0.3565,0.3464,0.3401,0.3323,0.3382,0.3286,0.3584,0.3582,0.3581,0,0.2823,0.2898,0.2938,0.2966,0.3049,0.3076,0.3115,0.3189,0.3238,0.3324,0.3381,0.3462,0.3516,0.3581,0.3635,0.3601,0.3768,0.3715,0.3674,0.3667,0.3505,0.3479,0.3481,0.3817,0.3817,0.3817,0.3816,0,0.2818,0.2849,0.292,0.2942,0.2991,0.3053,0.3114,0.3164,0.3258,0.3325,0.3404,0.3471,0.3563,0.3657,0.3688,0.3739,0.3811,0.3713,0.3704,0.3524,0.3499,0.341,0.3363,0.3822,0.3821,0.382,0.3819,0,0.2779,0.2828,0.2875,0.2952,0.2977,0.3007,0.3111,0.3157,0.325,0.3346,0.3384,0.3513,0.3616,0.3711,0.3822,0.3798,0.3733,0.3854,0.3636,0.3597,0.3405,0.3369,0.3278,0.3186,0.3812,0.381,0.3809,0,0.2766,0.2785,0.2864,0.289,0.2925,0.2984,0.3031,0.3135,0.3189,0.3354,0.3395,0.3539,0.3607,0.3747,0.373,0.3784,0.3701,0.3632,0.3513,0.3394,0.335,0.3241,0.3163,0.3342,0.3337,0.3333,0.333,0,0.273,0.2757,0.2792,0.2845,0.2891,0.2952,0.3019,0.3067,0.3189,0.3268,0.3351,0.342,0.3539,0.3483,0.3567,0.3563,0.3413,0.3548,0.3485,0.304,0.2863,0.2767,0.327,0.3294,0.3298,0.3301,0.3303,0.3304,0.2686,0.2696,0.2736,0.2784,0.284,0.2883,0.2882,0.2962,0.3022,0.3082,0.3216,0.3226,0.3259,0.3309,0.3307,0.3135,0.3166,0.3011,0.3002,0.2924,0.2744,0.3168,0.3134,0.3137,0.3139,0.3141,0.3143,0,0.2606,0.263,0.2673,0.2711,0.2731,0.2789,0.2841,0.2804,0.2803,0.2889,0.2922,0.2883,0.2837,0.2851,0.2732,0.2614,0.2505,0.254,0.2345,0.2316,0.2746,0.2632,0.2411,0.2411,0.2412,0.2412,0.2412,0.2412,0.2558,0.2556,0.2582,0.2577,0.2603,0.2553,0.2543,0.2509,0.2515,0.2449,0.2393,0.2433,0.2503,0.2441,0.2292,0.223,0.208,0.1944,0.2013,0.231,0.2353,0.2394,0.2277,0.1986,0.1985,0.1454,0.145,0.1447]},{"header":{"parameterUnit":"m.s-1","parameterCategory":2,"la1":30.2991,"la2":30.254,"lo1":-89.0895,"lo2":-89.0444,"dy":0.0017,"dx":0.0017,"nx":28,"ny":28,"refTime":"2025-11-29T03:00:00:Z","depth":"0","parameterNumber":3,"parameterNumberName":"V-component_of_CURRENTS"},"data":[0,0,0,0,0,0,0,0,0,0,0,0,0,0,0,0,0,0,0,0,0,0,0,0,0,0,0,0,0,0,0,0,0,0,0,0,0,0,0,0,0,0,0,0,0,0,0,0,0,0,0,0,0,0,0,0,0,0,0.0165,0.0164,0,0.0103,0.0102,0.0101,0.0063,0.0063,0.0063,0.0063,-0.0011,-0.0013,-0.0015,0,0,0,0,0,0,0,0,0,0,0,0,0,0.02,0.02,0.0165,0.0164,0.0164,0.0103,0.0102,0.0101,0.0063,0.0063,0.0063,0.0063,-0.0011,-0.0013,-0.0015,0,0,0,0,0,0,0,0,0,0,0,0,0,0.0165,0.02,0.0165,0.0138,0.0136,0.0103,0.0102,0.01,0.0063,0.0063,0.0063,0.0063,-0.001,-0.0013,-0.0016,-0.0032,0,0,-0.0025,-0.0026,0,0,0,0,0,0,0,0,0.0167,0.0163,0.0143,0.014,0.0137,0.0092,0.0087,0.0056,0.0063,0.0089,0.0063,0.0063,0.0023,0.0017,0.0004,-0.0035,-0.0039,-0.0025,-0.0027,-0.0028,-0.0029,0,0,0,0,0,0,0,0.0169,0.0166,0.0139,0.0142,0.0139,0.0112,0.0108,0.0081,0.0056,0.0087,0.0084,0.008,0.0021,0.0007,0.0002,-0.004,-0.0025,-0.0027,-0.0029,-0.003,-0.0104,-0.0104,0,0,0,0,0,0,0.0183,0.0168,0.0141,0.0137,0.0154,0.0112,0.0107,0.0105,0.0056,0.0049,0.008,0.0078,0.0012,0.0005,-0.0001,-0.0012,-0.0028,-0.0031,-0.0032,-0.0104,-0.0104,-0.0104,0,0,0,0,0,0,0.0184,0.0181,0.0143,0.0152,0.0146,0.0112,0.011,0.0104,0.0094,0.0051,0.0044,0.0077,0.0011,0.0003,-0.0022,-0.0015,-0.0032,-0.0034,-0.0103,-0.0104,-0.0104,-0.0041,0,0,0,0,0,0,0.0185,0.0182,0.0182,0.0153,0.0146,0.0132,0.011,0.0103,0.0091,0.0089,0.0046,0.0039,0.0011,-0.0017,-0.0025,-0.002,-0.0037,-0.0103,-0.0104,-0.0104,-0.0043,-0.0039,-0.0036,0,0,0,0,0,0.0187,0.0193,0.0183,0.0179,0.0149,0.0133,0.0127,0.0101,0.0092,0.009,0.0059,0.004,-0.0026,-0.002,-0.0029,-0.0024,-0.0103,-0.0103,-0.0104,-0.0045,-0.004,-0.0036,0,0,0,0,0,0,0.0208,0.0189,0.0177,0.0177,0.0159,0.0127,0.0123,0.0107,0.0081,0.0079,0.0039,0.0029,0.0008,-0.0019,-0.0012,-0.0049,-0.0068,-0.007,-0.002,-0.0016,-0.0013,0.0012,-0.0039,0,0,0,0,0,0.0214,0.0214,0.019,0.019,0.0184,0.0155,0.0144,0.013,0.0104,0.0093,0.0063,0.0029,-0.0002,-0.0016,-0.0048,-0.0065,-0.0072,-0.007,-0.0066,-0.0063,-0.005,-0.0061,-0.0057,-0.0106,-0.0106,-0.0106,0,0,0.0222,0.0211,0.0211,0.0194,0.0178,0.0179,0.0148,0.0141,0.0139,0.0089,0.0077,0.004,-0.0005,-0.0025,-0.0037,-0.0046,-0.0051,-0.0064,-0.0061,-0.0049,-0.0061,-0.0056,-0.0051,-0.0106,-0.0106,-0.0106,0,0,0.0245,0.0231,0.0241,0.0231,0.0215,0.0198,0.0201,0.0174,0.016,0.0142,0.0104,0.0075,0.003,0.0,-0.0022,-0.0019,-0.0034,-0.0033,0.0007,-0.0003,0.0001,0.0005,0.0017,0.0022,-0.003,-0.003,-0.003,0,0.0255,0.0265,0.024,0.0249,0.0249,0.0214,0.0228,0.0207,0.0175,0.017,0.0148,0.0087,0.0043,0.0023,0.0017,-0.0009,-0.0008,-0.0001,0.0004,0.0008,0.0011,0.0022,0.0026,-0.0027,-0.0027,-0.0027,-0.0028,0,0.0286,0.0294,0.03,0.0302,0.0297,0.0303,0.0279,0.027,0.0248,0.0228,0.0204,0.0145,0.0112,0.0087,0.005,0.0046,0.0043,0.0012,0.0002,0.002,0.003,0.0033,-0.0023,-0.0024,-0.0024,-0.0025,0,0,0.0318,0.0322,0.0326,0.0341,0.0328,0.0333,0.033,0.0324,0.0337,0.029,0.0304,0.0228,0.02,0.0173,0.0123,0.0105,0.0117,0.0072,0.007,0.0099,0.0119,0.0114,0.0117,0.0091,0.0092,0.0092,0.0123,0,0.0352,0.0387,0.0376,0.0411,0.0431,0.0404,0.0408,0.0396,0.038,0.0383,0.0322,0.0308,0.0231,0.022,0.0189,0.014,0.0127,0.0114,0.0083,0.0083,0.0089,0.012,0.0129,0.0156,0.0126,0.0127,0.0127,0,0.0392,0.0411,0.0452,0.0477,0.0484,0.0493,0.051,0.0512,0.0498,0.0486,0.0461,0.0417,0.038,0.0313,0.0249,0.0248,0.0189,0.0147,0.0146,0.0124,0.0084,0.0128,0.0163,0.0056,0.0132,0.0131,0.0131,0,0.0439,0.047,0.0507,0.0514,0.0529,0.0541,0.0548,0.0544,0.0568,0.0559,0.0587,0.0521,0.0512,0.0427,0.0325,0.0292,0.0273,0.0213,0.0157,0.0157,0.0149,0.0147,0.0089,0.0171,0.0171,0.0171,0.0171,0,0.0487,0.0521,0.0532,0.0554,0.0602,0.0593,0.0646,0.0641,0.0664,0.0723,0.0648,0.0684,0.054,0.0503,0.0387,0.0303,0.0319,0.0183,0.0167,0.0171,0.0171,0.0063,-0.0015,0.0172,0.0172,0.0172,0.0172,0,0.0537,0.0542,0.0591,0.0614,0.0626,0.0662,0.0715,0.0758,0.0771,0.0853,0.0859,0.0823,0.078,0.0649,0.053,0.0403,0.0246,0.0265,0.0292,0.0277,0.0101,0.0027,-0.0032,-0.0084,0.021,0.021,0.0211,0,0.0567,0.0594,0.0638,0.067,0.0682,0.0736,0.0777,0.0803,0.0864,0.0948,0.1,0.0983,0.1001,0.0836,0.0606,0.0433,0.0291,0.0295,0.0211,0.0112,0.0017,-0.0027,-0.0071,0.0233,0.0233,0.0233,0.0233,0,0.0621,0.063,0.0665,0.073,0.0778,0.085,0.0917,0.0985,0.1045,0.1138,0.1244,0.1272,0.1121,0.0941,0.068,0.0535,0.0218,0.0292,0.0179,0.0027,-0.0012,-0.0076,0.0204,0.0235,0.0235,0.0235,0.0235,0.0235,0.0655,0.0686,0.0723,0.079,0.0856,0.0952,0.1027,0.1129,0.1259,0.1419,0.143,0.1512,0.1228,0.0878,0.0663,0.0256,0.0243,0.0116,0.0039,0.0008,-0.0061,0.0236,0.0246,0.0246,0.0246,0.0246,0.0245,0,0.0684,0.0717,0.0783,0.0861,0.0947,0.0975,0.1112,0.1207,0.1383,0.1548,0.1668,0.1579,0.1245,0.0861,0.0312,0.0042,-0.0061,-0.0101,-0.0173,-0.0206,0.0056,0.0037,0.0015,0.0015,0.0016,0.0016,0.0016,0.0016,0.0695,0.0749,0.0782,0.0917,0.0987,0.111,0.1196,0.1353,0.1487,0.169,0.1753,0.1783,0.1464,0.055,-0.006,-0.0195,-0.0385,-0.0412,-0.0507,-0.0351,-0.0337,-0.0324,-0.036,-0.0464,-0.0464,-0.0726,-0.0729,-0.0731]}],[{"header":{"parameterUnit":"m.s-1","parameterCategory":2,"la1":30.2991,"la2":30.254,"lo1":-89.0895,"lo2":-89.0444,"dy":0.0017,"dx":0.0017,"nx":28,"ny":28,"refTime":"2025-11-29T03:00:00:Z","depth":"2","parameterNumber":2,"parameterNumberName":"U-component_of_CURRENTS"},"data":[0,0,0,0,0,0,0,0,0,0,0,0,0,0,0,0,0,0,0,0,0,0,0,0,0,0,0,0,0,0,0,0,0,0,0,0,0,0,0,0,0,0,0,0,0,0,0,0,0,0,0,0,0,0,0,0,0,0,0.2181,0.2181,0,0.221,0.221,0.2211,0.2226,0.2226,0.2225,0.2224,0.2187,0.2187,0.2186,0,0,0,0,0,0,0,0,0,0,0,0,0,0.2162,0.2163,0.2181,0.2181,0.2181,0.2209,0.221,0.2211,0.2226,0.2225,0.2225,0.2224,0.2187,0.2187,0.2186,0,0,0,0,0,0,0,0,0,0,0,0,0,0.2184,0.2163,0.2181,0.2187,0.2188,0.2209,0.221,0.2212,0.2226,0.2225,0.2225,0.2224,0.2188,0.2187,0.2186,0.2198,0,0,0.2184,0.2183,0,0,0,0,0,0,0,0,0.2183,0.2186,0.2187,0.2187,0.2187,0.2208,0.219,0.2202,0.2226,0.2218,0.2224,0.2224,0.2185,0.2184,0.2201,0.2196,0.2194,0.2184,0.2183,0.2183,0.2183,0,0,0,0,0,0,0,0.2182,0.2185,0.2199,0.2186,0.2187,0.2195,0.2198,0.2193,0.2209,0.2219,0.2218,0.2212,0.2185,0.2202,0.22,0.2194,0.2184,0.2183,0.2183,0.2182,0.2218,0.2219,0,0,0,0,0,0,0.2166,0.2183,0.2198,0.2199,0.2176,0.2196,0.2199,0.2207,0.2211,0.2209,0.2213,0.2212,0.2203,0.2201,0.2198,0.2235,0.2183,0.2182,0.2182,0.2217,0.2218,0.222,0,0,0,0,0,0,0.2166,0.2167,0.2197,0.2186,0.2189,0.2196,0.2206,0.2208,0.2225,0.2205,0.2204,0.2226,0.2203,0.2199,0.2199,0.2232,0.2182,0.2181,0.2215,0.2217,0.2219,0.2292,0,0,0,0,0,0,0.2165,0.2168,0.2179,0.2185,0.2189,0.2206,0.2206,0.2209,0.2219,0.2219,0.2216,0.2212,0.2202,0.22,0.2198,0.223,0.2181,0.2213,0.2216,0.2219,0.2288,0.2296,0.2304,0,0,0,0,0,0.2165,0.2177,0.218,0.2181,0.2201,0.2206,0.221,0.2216,0.222,0.2229,0.223,0.2212,0.2215,0.22,0.2198,0.223,0.2212,0.2215,0.2218,0.2284,0.2295,0.2303,0,0,0,0,0,0,0.2173,0.2179,0.2182,0.2196,0.2198,0.2206,0.2224,0.222,0.2233,0.2236,0.2222,0.2219,0.2238,0.222,0.2203,0.2249,0.2214,0.2217,0.2265,0.2275,0.2282,0.2292,0.218,0,0,0,0,0,0.2179,0.2193,0.2192,0.2204,0.2214,0.2222,0.2229,0.2225,0.223,0.2236,0.2241,0.2245,0.2252,0.2249,0.2254,0.2268,0.2284,0.229,0.2298,0.2305,0.2311,0.2365,0.2379,0.223,0.223,0.223,0,0,0.2174,0.2189,0.2189,0.2206,0.2223,0.2235,0.2227,0.2238,0.2243,0.2228,0.2262,0.2273,0.2263,0.2291,0.2297,0.2275,0.236,0.2309,0.2314,0.2318,0.237,0.2384,0.2397,0.2232,0.2232,0.2232,0,0,0.2177,0.2202,0.2214,0.2221,0.2236,0.2248,0.2249,0.2267,0.2278,0.2292,0.23,0.233,0.233,0.235,0.235,0.2401,0.2404,0.2404,0.2445,0.2498,0.2511,0.2522,0.2582,0.2598,0.2402,0.2402,0.2402,0,0.2175,0.2194,0.2215,0.2231,0.2242,0.2255,0.2266,0.228,0.2292,0.2317,0.2303,0.2369,0.2361,0.2408,0.243,0.242,0.2452,0.241,0.2509,0.2521,0.2531,0.259,0.2607,0.2406,0.2405,0.2405,0.2405,0,0.2182,0.2199,0.2214,0.2247,0.2263,0.2274,0.229,0.2327,0.2348,0.236,0.2418,0.243,0.2469,0.2479,0.2465,0.2545,0.2547,0.252,0.2487,0.2551,0.2608,0.2625,0.2411,0.241,0.2409,0.2408,0,0,0.2163,0.221,0.2211,0.2232,0.2271,0.2283,0.2327,0.2371,0.2408,0.244,0.2494,0.2531,0.2559,0.2563,0.2571,0.2614,0.2722,0.2602,0.2603,0.2665,0.2857,0.2718,0.2722,0.2717,0.2719,0.2721,0.2875,0,0.2164,0.2191,0.2219,0.2249,0.2268,0.2317,0.2352,0.2393,0.2437,0.2497,0.2536,0.2583,0.2579,0.261,0.2659,0.2706,0.2765,0.2683,0.2782,0.2785,0.2656,0.2736,0.2507,0.2611,0.2891,0.2894,0.2896,0,0.2157,0.2179,0.2207,0.2261,0.2278,0.2302,0.2394,0.2425,0.2511,0.2552,0.2627,0.2648,0.2739,0.2707,0.2844,0.2797,0.2839,0.2869,0.2874,0.2726,0.2675,0.2588,0.263,0.2922,0.292,0.2918,0.2917,0,0.2129,0.2172,0.2203,0.2216,0.2279,0.2319,0.2363,0.2445,0.2497,0.2598,0.266,0.2743,0.281,0.2874,0.2931,0.2906,0.3065,0.3032,0.2955,0.2947,0.2759,0.2728,0.3131,0.313,0.313,0.313,0.3129,0,0.212,0.2134,0.2192,0.2203,0.2249,0.2299,0.2367,0.2436,0.2534,0.2605,0.2687,0.2754,0.2857,0.2941,0.2975,0.3016,0.3109,0.2983,0.2978,0.2777,0.2747,0.3007,0.2991,0.3135,0.3134,0.3133,0.3132,0,0.2078,0.2117,0.2149,0.2212,0.2237,0.2269,0.2367,0.2411,0.2529,0.2633,0.2674,0.2811,0.2913,0.2991,0.3105,0.3073,0.3115,0.3103,0.2859,0.2819,0.296,0.2946,0.305,0.3047,0.3044,0.3041,0.3039,0,0.2061,0.2082,0.2141,0.2153,0.2183,0.2239,0.2275,0.2398,0.2451,0.2648,0.2687,0.2831,0.2874,0.2989,0.2971,0.3009,0.3083,0.2799,0.2684,0.2968,0.2954,0.2944,0.2935,0.2496,0.2489,0.2484,0.248,0,0.2032,0.2061,0.2078,0.2103,0.214,0.2189,0.225,0.2284,0.2437,0.2517,0.2613,0.2664,0.2784,0.2687,0.2731,0.2714,0.2763,0.2688,0.3084,0.2517,0.2447,0.2432,0.2441,0.2433,0.2438,0.2441,0.2444,0.2446,0.2003,0.2002,0.2028,0.2043,0.2087,0.2108,0.2097,0.2159,0.2218,0.2288,0.242,0.2424,0.2482,0.2396,0.2345,0.2318,0.2505,0.2393,0.241,0.2432,0.2305,0.223,0.2154,0.2157,0.216,0.2162,0.2164,0,0.1949,0.1948,0.1958,0.196,0.1957,0.203,0.2056,0.2005,0.1986,0.2077,0.2106,0.1953,0.1901,0.1982,0.1867,0.1861,0.1855,0.1785,0.1765,0.1813,0.1855,0.1698,0.1388,0.1385,0.1383,0.1381,0,0,0.1911,0.1881,0.1875,0.1832,0.1842,0.1807,0.1797,0.1737,0.1744,0.1665,0.1652,0.178,0.1895,0.1602,0.1578,0.1464,0.1622,0.1403,0.2029,0.2053,0.2092,0.2213,0.2025,0,0,0,0,0]},{"header":{"parameterUnit":"m.s-1","parameterCategory":2,"la1":30.2991,"la2":30.254,"lo1":-89.0895,"lo2":-89.0444,"dy":0.0017,"dx":0.0017,"nx":28,"ny":28,"refTime":"2025-11-29T03:00:00:Z","depth":"2","parameterNumber":3,"parameterNumberName":"V-component_of_CURRENTS"},"data":[0,0,0,0,0,0,0,0,0,0,0,0,0,0,0,0,0,0,0,0,0,0,0,0,0,0,0,0,0,0,0,0,0,0,0,0,0,0,0,0,0,0,0,0,0,0,0,0,0,0,0,0,0,0,0,0,0,0,0.004,0.0039,0,-0.0018,-0.0019,-0.002,-0.0056,-0.0056,-0.0056,-0.0056,-0.012,-0.0122,-0.0123,0,0,0,0,0,0,0,0,0,0,0,0,0,0.0066,0.0066,0.004,0.0039,0.0039,-0.0018,-0.0019,-0.002,-0.0056,-0.0056,-0.0056,-0.0057,-0.012,-0.0121,-0.0123,0,0,0,0,0,0,0,0,0,0,0,0,0,0.0035,0.0066,0.004,0.0015,0.0012,-0.0018,-0.0019,-0.002,-0.0056,-0.0056,-0.0056,-0.0057,-0.0119,-0.0121,-0.0124,-0.0136,0,0,-0.0131,-0.0132,0,0,0,0,0,0,0,0,0.0037,0.0034,0.0019,0.0016,0.0013,-0.0029,-0.0033,-0.0059,-0.0056,-0.0032,-0.0056,-0.0057,-0.0089,-0.0094,-0.0107,-0.0139,-0.0142,-0.0131,-0.0133,-0.0134,-0.0134,0,0,0,0,0,0,0,0.0039,0.0036,0.0015,0.0018,0.0015,-0.0012,-0.0016,-0.0038,-0.006,-0.0034,-0.0036,-0.0041,-0.0091,-0.0104,-0.0108,-0.0143,-0.0131,-0.0133,-0.0135,-0.0136,-0.018,-0.018,0,0,0,0,0,0,0.0052,0.0038,0.0017,0.0014,0.0027,-0.0012,-0.0017,-0.0016,-0.006,-0.0066,-0.004,-0.0042,-0.01,-0.0105,-0.0111,-0.0116,-0.0134,-0.0136,-0.0137,-0.018,-0.018,-0.018,0,0,0,0,0,0,0.0053,0.0051,0.002,0.0025,0.002,-0.0011,-0.0011,-0.0017,-0.0028,-0.0065,-0.0071,-0.0044,-0.01,-0.0107,-0.0124,-0.0119,-0.0137,-0.0139,-0.0181,-0.018,-0.018,-0.0134,0,0,0,0,0,0,0.0054,0.0052,0.0054,0.0027,0.002,0.0012,-0.0011,-0.0018,-0.0029,-0.0032,-0.007,-0.0076,-0.0101,-0.012,-0.0127,-0.0123,-0.0141,-0.0181,-0.0181,-0.018,-0.0136,-0.0132,-0.0129,0,0,0,0,0,0.0055,0.0063,0.0055,0.0052,0.0025,0.0013,0.0007,-0.0017,-0.0029,-0.0028,-0.0055,-0.0075,-0.0122,-0.0122,-0.013,-0.0126,-0.0181,-0.0181,-0.018,-0.0138,-0.0133,-0.0129,0,0,0,0,0,0,0.0075,0.0059,0.005,0.0052,0.0038,0.0007,0.0003,-0.0012,-0.0034,-0.0038,-0.0072,-0.008,-0.0095,-0.0115,-0.0115,-0.0137,-0.0154,-0.0155,-0.012,-0.0116,-0.0112,-0.0094,-0.0143,0,0,0,0,0,0.0082,0.0084,0.0064,0.0066,0.0061,0.0033,0.0023,0.0008,-0.0013,-0.0023,-0.0049,-0.0076,-0.0099,-0.011,-0.0134,-0.0145,-0.0157,-0.0147,-0.0143,-0.014,-0.0131,-0.0147,-0.0144,-0.0178,-0.0178,-0.0178,0,0,0.009,0.0081,0.0082,0.007,0.0054,0.0056,0.0027,0.0018,0.0017,-0.0027,-0.0036,-0.0066,-0.0099,-0.0113,-0.0121,-0.0129,-0.0137,-0.0139,-0.0136,-0.0129,-0.0146,-0.0143,-0.014,-0.0177,-0.0177,-0.0178,0,0,0.0111,0.01,0.011,0.0102,0.0087,0.0072,0.0074,0.0049,0.0036,0.0022,-0.001,-0.003,-0.0066,-0.0086,-0.0102,-0.0092,-0.0119,-0.0104,-0.0071,-0.0087,-0.0084,-0.0082,-0.0088,-0.0087,-0.01,-0.01,-0.01,0,0.012,0.013,0.011,0.0118,0.0118,0.0085,0.0098,0.008,0.0052,0.0048,0.0028,-0.0018,-0.0051,-0.0063,-0.0065,-0.0083,-0.0095,-0.0084,-0.0081,-0.008,-0.0078,-0.0085,-0.0084,-0.0098,-0.0098,-0.0099,-0.0099,0,0.0149,0.0155,0.0161,0.0163,0.016,0.0164,0.0143,0.0135,0.0114,0.0098,0.0081,0.0035,0.0011,-0.0007,-0.0037,-0.0041,-0.0054,-0.0076,-0.009,-0.0072,-0.0081,-0.0081,-0.0095,-0.0096,-0.0096,-0.0097,0,0,0.0176,0.0181,0.0183,0.0195,0.0185,0.0189,0.0188,0.0184,0.0195,0.0155,0.0166,0.011,0.0086,0.0066,0.0026,0.0006,-0.0001,-0.0029,-0.0031,-0.003,-0.003,-0.0044,-0.0045,-0.0025,-0.0025,-0.0025,-0.0038,0,0.0206,0.0234,0.0227,0.0257,0.0271,0.0249,0.0255,0.0246,0.0234,0.0236,0.0185,0.0175,0.0113,0.0103,0.0073,0.0021,0.0001,0.0006,-0.0052,-0.0053,-0.0064,-0.0045,-0.0025,-0.0036,-0.0038,-0.0038,-0.0038,0,0.0239,0.0255,0.0288,0.031,0.0314,0.0324,0.034,0.0345,0.0334,0.0323,0.0302,0.0264,0.0228,0.0173,0.0098,0.0103,0.0041,-0.0003,-0.0005,-0.0033,-0.0067,-0.0057,-0.0036,-0.0039,-0.0039,-0.0039,-0.0038,0,0.0275,0.0301,0.0331,0.0337,0.0351,0.0361,0.0371,0.0371,0.0396,0.0385,0.0406,0.0345,0.0332,0.0244,0.014,0.0119,0.0064,0.0025,-0.0043,-0.0045,-0.0045,-0.0047,-0.0026,-0.0026,-0.0026,-0.0026,-0.0026,0,0.0312,0.0338,0.0349,0.0366,0.0408,0.0404,0.0452,0.045,0.0474,0.0529,0.0457,0.0485,0.0348,0.0295,0.0182,0.008,0.0095,-0.0028,-0.0048,-0.0029,-0.0029,-0.0048,-0.0051,-0.0027,-0.0026,-0.0026,-0.0026,0,0.0346,0.0352,0.0391,0.0413,0.0425,0.0458,0.0512,0.0554,0.0563,0.0636,0.0637,0.0598,0.0529,0.0393,0.0264,0.0151,0.0041,-0.0003,0.0032,0.0016,-0.0068,-0.0068,-0.0076,-0.0076,-0.0077,-0.0077,-0.0078,0,0.0365,0.0386,0.0428,0.0461,0.0472,0.0521,0.0563,0.0591,0.0653,0.0716,0.0764,0.0716,0.0698,0.0502,0.0296,0.0107,0.0066,-0.001,-0.0055,-0.0053,-0.0072,-0.0071,-0.007,-0.0035,-0.0034,-0.0034,-0.0034,0,0.0403,0.0414,0.0446,0.051,0.0559,0.0628,0.0696,0.0762,0.0821,0.0882,0.0956,0.0944,0.0766,0.0577,0.0308,0.0172,0.0018,-0.0016,-0.0012,-0.0029,-0.0017,-0.0035,-0.0035,-0.0034,-0.0034,-0.0034,-0.0034,-0.0034,0.0432,0.046,0.0501,0.0566,0.0631,0.0729,0.08,0.0889,0.0995,0.1091,0.1084,0.1065,0.0853,0.0506,0.0281,0.0034,0.0036,-0.0066,-0.0065,-0.0064,-0.0061,-0.0051,-0.0073,-0.0073,-0.0073,-0.0073,-0.0074,0,0.047,0.0501,0.0559,0.0641,0.0724,0.0751,0.0887,0.0962,0.1096,0.1161,0.1203,0.1003,0.0796,0.0549,0.0191,-0.0025,-0.0049,-0.0101,-0.008,-0.0078,-0.0077,-0.0074,-0.009,-0.0091,-0.0092,-0.0092,0,0,0.0491,0.0545,0.0572,0.0703,0.0769,0.0887,0.097,0.1078,0.1151,0.1205,0.119,0.1144,0.0865,0.0601,0.0317,0.0116,0.0062,0.0068,0.0105,0.0166,0.0169,-0.0033,-0.0023,0,0,0,0,0]}],[{"header":{"parameterUnit":"m.s-1","parameterCategory":2,"la1":30.2991,"la2":30.254,"lo1":-89.0895,"lo2":-89.0444,"dy":0.0017,"dx":0.0017,"nx":28,"ny":28,"refTime":"2025-11-29T03:00:00:Z","depth":"4","parameterNumber":2,"parameterNumberName":"U-component_of_CURRENTS"},"data":[0,0,0,0,0,0,0,0,0,0,0,0,0,0,0,0,0,0,0,0,0,0,0,0,0,0,0,0,0,0,0,0,0,0,0,0,0,0,0,0,0,0,0,0,0,0,0,0,0,0,0,0,0,0,0,0,0,0,0.1103,0.1103,0,0.116,0.116,0.1161,0.1215,0.1216,0.1217,0.1218,0.1304,0.1305,0.1307,0,0,0,0,0,0,0,0,0,0,0,0,0,0.1076,0.1076,0.1102,0.1103,0.1104,0.116,0.116,0.1161,0.1215,0.1216,0.1217,0.1218,0.1304,0.1305,0.1307,0,0,0,0,0,0,0,0,0,0,0,0,0,0.1103,0.1075,0.1102,0.114,0.1144,0.116,0.116,0.1161,0.1214,0.1216,0.1217,0.1219,0.1303,0.1305,0.1307,0.1292,0,0,0.1314,0.1315,0,0,0,0,0,0,0,0,0.1101,0.1103,0.1134,0.1138,0.1142,0.1184,0.1183,0.1207,0.1214,0.1185,0.1218,0.1219,0.1268,0.1273,0.1276,0.1296,0.1299,0.1314,0.1315,0.1316,0.1317,0,0,0,0,0,0,0,0.1099,0.1101,0.1122,0.1135,0.114,0.1167,0.1172,0.1188,0.1216,0.1187,0.1192,0.1203,0.127,0.1273,0.1278,0.1301,0.1314,0.1316,0.1317,0.1318,0.1422,0.1423,0,0,0,0,0,0,0.1094,0.1099,0.112,0.1124,0.1128,0.1166,0.1172,0.1167,0.1215,0.1224,0.1202,0.1205,0.1269,0.1276,0.1282,0.1359,0.1316,0.1318,0.1319,0.142,0.1422,0.1424,0,0,0,0,0,0,0.1093,0.1095,0.1118,0.1117,0.1122,0.1165,0.116,0.1167,0.1204,0.1226,0.1236,0.1234,0.127,0.1279,0.133,0.136,0.1319,0.1321,0.1418,0.1421,0.1423,0.1455,0,0,0,0,0,0,0.1092,0.1094,0.1102,0.1115,0.1122,0.1148,0.1159,0.1168,0.1207,0.1214,0.1256,0.1264,0.1272,0.1327,0.1332,0.1362,0.1323,0.1417,0.142,0.1422,0.1452,0.1458,0.1463,0,0,0,0,0,0.109,0.1091,0.1101,0.1105,0.1126,0.1149,0.1155,0.1189,0.1208,0.1226,0.1263,0.1265,0.1348,0.133,0.1335,0.1367,0.1415,0.1419,0.1422,0.145,0.1457,0.1463,0,0,0,0,0,0,0.1091,0.1097,0.1109,0.1114,0.1141,0.116,0.1185,0.1203,0.1244,0.1261,0.128,0.129,0.1342,0.1352,0.1331,0.1406,0.1383,0.1388,0.1402,0.1409,0.1415,0.1401,0.1324,0,0,0,0,0,0.1091,0.1091,0.111,0.112,0.1136,0.1165,0.1184,0.1207,0.1238,0.1259,0.1289,0.1325,0.1353,0.1382,0.1402,0.1445,0.1451,0.1471,0.1476,0.1481,0.1474,0.1518,0.1527,0.1435,0.1435,0.1435,0,0,0.1094,0.1101,0.1102,0.1121,0.1146,0.1167,0.1181,0.1218,0.1244,0.1261,0.1316,0.1342,0.1367,0.1413,0.1439,0.1433,0.1512,0.1485,0.1489,0.148,0.1523,0.1531,0.1539,0.1437,0.1437,0.1436,0,0,0.1099,0.111,0.1114,0.1133,0.1174,0.1191,0.1208,0.1244,0.1274,0.132,0.1342,0.1389,0.1434,0.1461,0.1477,0.1527,0.1533,0.1543,0.1569,0.1612,0.162,0.1627,0.1649,0.1658,0.1555,0.1555,0.1555,0,0.111,0.1111,0.1125,0.1139,0.116,0.1203,0.1223,0.1253,0.1306,0.1334,0.1346,0.1427,0.1451,0.1506,0.1527,0.1538,0.1559,0.154,0.1619,0.1625,0.1632,0.1653,0.1662,0.1557,0.1557,0.1556,0.1556,0,0.1113,0.1126,0.1137,0.1162,0.1185,0.1214,0.1251,0.1292,0.1334,0.1365,0.1435,0.1472,0.1526,0.1543,0.1549,0.1614,0.1612,0.1612,0.1597,0.1643,0.1663,0.1671,0.156,0.1559,0.1558,0.1558,0,0,0.1109,0.1134,0.1142,0.1153,0.1201,0.1216,0.1265,0.1317,0.1362,0.1418,0.1475,0.1529,0.1567,0.1588,0.1616,0.1651,0.1715,0.1657,0.1658,0.1671,0.1805,0.1691,0.1689,0.1737,0.1739,0.174,0.1802,0,0.1118,0.1136,0.115,0.118,0.1193,0.1238,0.1278,0.1331,0.139,0.1458,0.1512,0.1581,0.1582,0.1629,0.1664,0.1705,0.1739,0.1697,0.1766,0.1767,0.1654,0.1696,0.1746,0.1808,0.181,0.1811,0.1812,0,0.1117,0.1129,0.1153,0.1183,0.1196,0.1227,0.13,0.1341,0.1438,0.1493,0.1571,0.1622,0.17,0.1691,0.1778,0.1757,0.1783,0.18,0.1804,0.1687,0.1668,0.1754,0.1828,0.1826,0.1825,0.1824,0.1823,0,0.1094,0.1127,0.1145,0.1156,0.1203,0.1235,0.1275,0.1361,0.1407,0.1534,0.159,0.1683,0.1753,0.1794,0.1841,0.1827,0.1916,0.1904,0.182,0.1812,0.1881,0.1873,0.1956,0.1956,0.1955,0.1955,0.1955,0,0.1079,0.1095,0.1141,0.115,0.1184,0.1225,0.1288,0.1349,0.1448,0.1507,0.1617,0.1679,0.1786,0.1848,0.1866,0.1866,0.1946,0.1821,0.1822,0.1894,0.1887,0.1887,0.1879,0.1958,0.1957,0.1957,0.1956,0,0.104,0.1074,0.1093,0.1149,0.117,0.1197,0.1279,0.132,0.1434,0.1516,0.1564,0.1705,0.1791,0.1862,0.1945,0.1896,0.1908,0.1889,0.1961,0.1965,0.1767,0.176,0.1793,0.179,0.1787,0.1784,0.1782,0,0.1016,0.1026,0.1082,0.1091,0.1121,0.1172,0.1204,0.1309,0.1355,0.151,0.1538,0.1676,0.1756,0.1778,0.1861,0.1891,0.1871,0.186,0.18,0.1754,0.1752,0.1749,0.1746,0.1778,0.1777,0.1776,0.1775,0,0.0967,0.1002,0.1016,0.1042,0.1073,0.1091,0.1151,0.1177,0.1298,0.1416,0.1488,0.1548,0.1643,0.1712,0.1758,0.177,0.1853,0.1829,0.1834,0.1778,0.1735,0.1736,0.1736,0.1765,0.1767,0.1768,0.1768,0,0.0933,0.0931,0.0958,0.0972,0.1,0.0992,0.1035,0.1086,0.1145,0.1321,0.1345,0.149,0.1624,0.165,0.1684,0.1697,0.1669,0.1603,0.162,0.1632,0.1552,0.1472,0.1421,0,0,0,0,0,0.0891,0.0876,0.0879,0.0876,0.09,0.0919,0.0984,0.1035,0.1166,0.1179,0.1257,0.1339,0.1418,0.1498,0.1481,0.1609,0.1668,0.158,0.1598,0.1708,0.172,0.164,0,0,0,0,0,0,0.0853,0.0856,0.085,0.0794,0.0782,0.0792,0.0833,0.0916,0.0934,0.1082,0.1139,0.1253,0.1356,0.1419,0.1457,0.1479,0.1459,0.1674,0.167,0.1702,0.1712,0.1722,0.1644,0,0,0,0,0]},{"header":{"parameterUnit":"m.s-1","parameterCategory":2,"la1":30.2991,"la2":30.254,"lo1":-89.0895,"lo2":-89.0444,"dy":0.0017,"dx":0.0017,"nx":28,"ny":28,"refTime":"2025-11-29T03:00:00:Z","depth":"4","parameterNumber":3,"parameterNumberName":"V-component_of_CURRENTS"},"data":[0,0,0,0,0,0,0,0,0,0,0,0,0,0,0,0,0,0,0,0,0,0,0,0,0,0,0,0,0,0,0,0,0,0,0,0,0,0,0,0,0,0,0,0,0,0,0,0,0,0,0,0,0,0,0,0,0,0,0.0105,0.0105,0,0.0073,0.0072,0.0072,0.0042,0.0041,0.0041,0.0041,-0.0015,-0.0016,-0.0017,0,0,0,0,0,0,0,0,0,0,0,0,0,0.011,0.011,0.0105,0.0105,0.0104,0.0073,0.0072,0.0072,0.0042,0.0041,0.0041,0.004,-0.0014,-0.0016,-0.0017,0,0,0,0,0,0,0,0,0,0,0,0,0,0.0096,0.011,0.0105,0.0085,0.0083,0.0073,0.0072,0.0072,0.0042,0.0041,0.0041,0.004,-0.0014,-0.0016,-0.0017,-0.0015,0,0,-0.0022,-0.0023,0,0,0,0,0,0,0,0,0.0097,0.0096,0.0088,0.0086,0.0084,0.006,0.0053,0.0041,0.0042,0.0058,0.0041,0.004,0.0008,0.0005,0.0001,-0.0018,-0.002,-0.0022,-0.0023,-0.0024,-0.0025,0,0,0,0,0,0,0,0.0098,0.0097,0.0093,0.0088,0.0085,0.0067,0.0065,0.0051,0.0037,0.0057,0.0054,0.005,0.0007,0.0003,-0.0001,-0.0021,-0.0022,-0.0024,-0.0025,-0.0025,-0.0045,-0.0045,0,0,0,0,0,0,0.0103,0.0098,0.0094,0.0092,0.0088,0.0067,0.0065,0.0069,0.0038,0.0032,0.0051,0.0049,0.0006,0.0001,-0.0003,-0.0,-0.0024,-0.0026,-0.0027,-0.0046,-0.0045,-0.0045,0,0,0,0,0,0,0.0104,0.0104,0.0095,0.0093,0.0091,0.0068,0.0073,0.0069,0.0062,0.0033,0.0027,0.0048,0.0005,-0.0,-0.0014,-0.0003,-0.0026,-0.0028,-0.0046,-0.0046,-0.0045,0.0003,0,0,0,0,0,0,0.0104,0.0104,0.0109,0.0094,0.0091,0.0091,0.0073,0.0068,0.006,0.0058,0.0029,0.0023,0.0004,-0.0011,-0.0016,-0.0006,-0.0029,-0.0047,-0.0046,-0.0045,0.0001,0.0005,0.0009,0,0,0,0,0,0.0105,0.0116,0.011,0.0109,0.0099,0.0092,0.0089,0.007,0.0061,0.0062,0.0042,0.0024,-0.0009,-0.0012,-0.0017,-0.0008,-0.0047,-0.0046,-0.0045,-0.0001,0.0005,0.0009,0,0,0,0,0,0,0.012,0.0113,0.0106,0.0115,0.0104,0.0086,0.0086,0.0074,0.006,0.0056,0.0029,0.0022,0.0015,-0.0003,-0.0006,-0.0011,-0.003,-0.003,0.0005,0.001,0.0014,0.0026,-0.0031,0,0,0,0,0,0.0126,0.0134,0.0121,0.0127,0.0124,0.0106,0.0101,0.0089,0.0074,0.0067,0.0047,0.0028,0.0016,0.0008,-0.0008,-0.001,-0.0032,-0.0007,-0.0003,0.0001,0.0007,-0.0013,-0.001,-0.0042,-0.0042,-0.0042,0,0,0.0132,0.0131,0.0134,0.0131,0.0122,0.0126,0.0102,0.0097,0.01,0.0063,0.0061,0.0041,0.0018,0.0015,0.0011,0.0001,-0.0003,0.0002,0.0005,0.0009,-0.0012,-0.0009,-0.0006,-0.0041,-0.0041,-0.0041,0,0,0.015,0.015,0.0161,0.0156,0.0147,0.0139,0.014,0.0124,0.0116,0.0111,0.0088,0.0076,0.0054,0.0044,0.0035,0.0053,0.0019,0.0046,0.0076,0.0057,0.0059,0.0061,0.0033,0.0032,0.0048,0.0048,0.0049,0,0.0156,0.0171,0.0161,0.017,0.0172,0.0149,0.0161,0.0152,0.0134,0.0133,0.0116,0.0093,0.0071,0.0072,0.0077,0.0063,0.0041,0.006,0.0063,0.0064,0.0065,0.0036,0.0034,0.0051,0.0051,0.005,0.005,0,0.018,0.0191,0.0198,0.0206,0.0208,0.0214,0.0203,0.0201,0.0189,0.018,0.0174,0.0145,0.0132,0.0124,0.0104,0.0106,0.0084,0.007,0.0052,0.0071,0.0039,0.0037,0.0054,0.0054,0.0053,0.0052,0,0,0.0194,0.0212,0.0214,0.0227,0.0229,0.0234,0.0243,0.0247,0.0258,0.0234,0.0243,0.0219,0.02,0.0188,0.0162,0.0145,0.013,0.0113,0.0111,0.0088,0.0078,0.0064,0.0059,0.0114,0.0114,0.0114,0.0051,0,0.0215,0.0243,0.0248,0.0277,0.0292,0.0284,0.0299,0.0299,0.0294,0.0296,0.0265,0.0263,0.0226,0.022,0.0197,0.0147,0.0126,0.0148,0.006,0.0058,0.0045,0.0057,0.0114,0.0049,0.0048,0.0047,0.0047,0,0.0236,0.0255,0.0288,0.0319,0.0326,0.0342,0.0366,0.0377,0.0374,0.0369,0.0357,0.0328,0.03,0.0267,0.019,0.0203,0.0148,0.0105,0.0102,0.0072,0.0039,0.0025,0.0042,0.0042,0.0043,0.0043,0.0043,0,0.0251,0.0285,0.0316,0.0324,0.0353,0.0371,0.0389,0.04,0.0422,0.0417,0.0424,0.0382,0.0364,0.029,0.0194,0.0191,0.0105,0.0088,0.0024,0.0021,0.0031,0.0029,0.0041,0.0041,0.0041,0.0041,0.0041,0,0.0271,0.0297,0.0327,0.0342,0.0388,0.0399,0.0449,0.0455,0.0479,0.051,0.0465,0.0467,0.0369,0.0303,0.0211,0.0107,0.0114,0.0032,0.0009,0.0051,0.0053,0.0028,0.0028,0.0039,0.0039,0.004,0.004,0,0.0281,0.0299,0.0339,0.0378,0.0396,0.0429,0.0494,0.0531,0.0541,0.0577,0.0577,0.0532,0.0443,0.0333,0.0213,0.0135,0.0033,-0.0006,0.0045,0.0024,-0.0043,-0.004,-0.008,-0.0081,-0.0082,-0.0083,-0.0083,0,0.0287,0.0309,0.0364,0.0397,0.0418,0.0474,0.052,0.0558,0.06,0.0613,0.0629,0.0562,0.0511,0.0331,0.0212,0.0037,0.0012,-0.0045,-0.0039,-0.0034,-0.0054,-0.005,-0.0046,-0.0085,-0.0085,-0.0085,-0.0085,0,0.0302,0.0322,0.0355,0.0421,0.0475,0.0543,0.0606,0.064,0.0682,0.0688,0.0671,0.0579,0.048,0.0337,0.0201,0.0075,-0.001,-0.0053,-0.0053,-0.0047,-0.004,-0.0057,-0.0053,-0.0088,-0.0088,-0.0087,-0.0087,0,0.0314,0.0338,0.0384,0.0444,0.0514,0.0587,0.0625,0.067,0.0709,0.0716,0.0708,0.0598,0.0541,0.0357,0.023,0.0105,0.0073,0.003,0.0026,0.0027,0.0075,0.0101,0.0081,0,0,0,0,0,0.0327,0.0357,0.0409,0.0477,0.0547,0.0591,0.0672,0.0705,0.0738,0.0731,0.0723,0.0628,0.0447,0.0373,0.0246,0.0208,0.0046,0.0053,-0.0006,-0.0103,-0.01,-0.0064,0,0,0,0,0,0,0.0338,0.0382,0.0405,0.0491,0.0542,0.0628,0.0682,0.0711,0.0708,0.0715,0.0623,0.0582,0.0409,0.0513,0.0236,0.02,0.0142,-0.0028,-0.0031,-0.0105,-0.0102,-0.0099,-0.0061,0,0,0,0,0]}]]